TimeCDT,TemperatureF,Dew PointF,Humidity,Sea Level PressureIn,VisibilityMPH,Wind Direction,Wind SpeedMPH,Gust SpeedMPH,PrecipitationIn,Events,Conditions,WindDirDegrees,DateUTC
12:52 AM,33.1,26.1,75,30.35,10.0,Calm,Calm,-,N/A,,Clear,0,2012-10-05 05:52:00
1:52 AM,32.0,25.0,75,30.33,10.0,NW,5.8,-,N/A,,Clear,320,2012-10-05 06:52:00
2:52 AM,30.2,24.8,80,30.31,10.0,WNW,4.6,-,N/A,,Clear,290,2012-10-05 07:52:00
3:52 AM,28.9,23.0,78,30.33,10.0,WSW,4.6,-,N/A,,Clear,250,2012-10-05 08:52:00
4:52 AM,30.0,25.0,82,30.32,10.0,Calm,Calm,-,N/A,,Clear,0,2012-10-05 09:52:00
5:52 AM,26.1,21.9,84,30.33,10.0,WSW,3.5,-,N/A,,Clear,250,2012-10-05 10:52:00
6:52 AM,25.0,21.9,88,30.33,10.0,West,3.5,-,N/A,,Clear,270,2012-10-05 11:52:00
7:52 AM,28.0,24.1,85,30.35,10.0,Calm,Calm,-,N/A,,Clear,0,2012-10-05 12:52:00
8:52 AM,33.1,27.0,78,30.37,10.0,West,3.5,-,N/A,,Clear,270,2012-10-05 13:52:00
9:52 AM,37.0,27.0,67,30.37,10.0,WNW,9.2,-,N/A,,Clear,300,2012-10-05 14:52:00
10:52 AM,41.0,26.1,55,30.36,10.0,NW,15.0,-,N/A,,Clear,320,2012-10-05 15:52:00
11:52 AM,42.8,26.6,53,30.35,10.0,NW,11.5,-,N/A,,Clear,310,2012-10-05 16:52:00
12:52 PM,45.0,25.0,46,30.35,10.0,NW,10.4,-,N/A,,Clear,310,2012-10-05 17:52:00
1:52 PM,48.9,24.1,38,30.33,10.0,NW,15.0,28.8,N/A,,Clear,320,2012-10-05 18:52:00
2:52 PM,51.1,23.0,33,30.29,10.0,NNW,19.6,25.3,N/A,,Clear,330,2012-10-05 19:52:00
3:52 PM,52.0,23.0,32,30.27,10.0,WNW,15.0,24.2,N/A,,Clear,300,2012-10-05 20:52:00
4:52 PM,53.1,21.0,29,30.26,10.0,NW,17.3,24.2,N/A,,Clear,310,2012-10-05 21:52:00
5:52 PM,51.1,19.9,29,30.27,10.0,NW,18.4,-,N/A,,Clear,320,2012-10-05 22:52:00
6:52 PM,48.0,19.9,33,30.28,10.0,NW,9.2,-,N/A,,Clear,310,2012-10-05 23:52:00
7:52 PM,45.0,19.9,37,30.30,10.0,NW,9.2,-,N/A,,Clear,310,2012-10-06 00:52:00
8:52 PM,41.0,21.0,45,30.31,10.0,NW,9.2,-,N/A,,Clear,320,2012-10-06 01:52:00
9:52 PM,39.0,21.0,49,30.32,10.0,NW,8.1,-,N/A,,Clear,320,2012-10-06 02:52:00
10:52 PM,34.0,19.9,56,30.34,10.0,NW,8.1,-,N/A,,Clear,310,2012-10-06 03:52:00
11:52 PM,35.1,19.9,54,30.35,10.0,NW,9.2,-,N/A,,Clear,310,2012-10-06 04:52:00